Location: Brno
(49.2000°N, 16.6330°E)
Time: 01:17:01
(UTC+02:00)

Transit 4A - Pass Details

Date: 29 July 2021
Orbit: 870 x 974 km, 66.8° (Epoch: 26 September)

Event Time Altitude Azimuth Distance (km) Brightness Sun altitude
Rises 07:14:41 0° 319° (NW) 3,467 10.6 16.4°
Reaches altitude 10° 07:18:04 10° 339° (NNW) 2,529 10.1 16.9°
Maximum altitude 07:21:56 18° 21° (NNE) 2,034 10.2 17.6°
Drops below altitude 10° 07:25:49 10° 62° (ENE) 2,545 11.8 18.2°
Sets 07:29:13 0° 82° (E) 3,497 12.6 18.7°
